VELOX-PII

Last updated on Tue Mar 29 2016 17:38:05 GMT+0000 (Coordinated Universal Time)

1 39438U 13066Y 16089.35964196 .00000382 00000-0 59067-4 0 9994 2 39438 97.6853 141.5893 0069984 294.3490 65.0425 14.77197925126705

Satellite not in orbit

VELOX-PII